Year,Month,Day,Hour,Minute,Value (Times are PST for temperature in C)
2010,03,19,00,00,3.30
2010,03,19,00,01,3.30
2010,03,19,00,02,3.30
2010,03,19,00,03,3.30
2010,03,19,00,04,3.30
2010,03,19,00,05,3.30
2010,03,19,00,06,3.30
2010,03,19,00,07,3.30
2010,03,19,00,08,3.30
2010,03,19,00,09,3.30
2010,03,19,00,10,3.30
2010,03,19,00,11,3.30
2010,03,19,00,12,3.30
2010,03,19,00,13,3.30
2010,03,19,00,14,3.20
2010,03,19,00,15,3.20
2010,03,19,00,16,3.20
2010,03,19,00,17,3.10
2010,03,19,00,18,3.10
2010,03,19,00,19,3.10
2010,03,19,00,20,3.10
2010,03,19,00,21,3.10
2010,03,19,00,22,3.10
2010,03,19,00,23,3.10
2010,03,19,00,24,3.10
2010,03,19,00,25,3.10
2010,03,19,00,26,3.10
2010,03,19,00,27,3.00
2010,03,19,00,28,2.90
2010,03,19,00,29,2.90
2010,03,19,00,30,2.90
2010,03,19,00,31,2.90
2010,03,19,00,32,2.90
2010,03,19,00,33,2.90
2010,03,19,00,34,2.90
2010,03,19,00,35,2.90
2010,03,19,00,36,2.90
2010,03,19,00,37,2.90
2010,03,19,00,38,2.90
2010,03,19,00,39,2.90
2010,03,19,00,40,2.90
2010,03,19,00,41,2.90
2010,03,19,00,42,2.90
2010,03,19,00,43,2.90
2010,03,19,00,44,2.90
2010,03,19,00,45,2.90
2010,03,19,00,46,2.90
2010,03,19,00,47,2.90
2010,03,19,00,48,2.90
2010,03,19,00,49,2.90
2010,03,19,00,50,2.90
2010,03,19,00,51,2.90
2010,03,19,00,52,2.90
2010,03,19,00,53,2.90
2010,03,19,00,54,2.90
2010,03,19,00,55,2.90
2010,03,19,00,56,2.90
2010,03,19,00,57,2.90
2010,03,19,00,58,2.90
2010,03,19,00,59,2.90
2010,03,19,01,00,2.90
2010,03,19,01,01,2.90
2010,03,19,01,02,2.90
2010,03,19,01,03,2.90
2010,03,19,01,04,2.90
2010,03,19,01,05,2.90
2010,03,19,01,06,2.90
2010,03,19,01,07,2.90
2010,03,19,01,08,2.80
2010,03,19,01,09,2.80
2010,03,19,01,10,2.80
2010,03,19,01,11,2.80
2010,03,19,01,12,2.80
2010,03,19,01,13,2.80
2010,03,19,01,14,2.80
2010,03,19,01,15,2.80
2010,03,19,01,16,2.80
2010,03,19,01,17,2.70
2010,03,19,01,18,2.70
2010,03,19,01,19,2.70
2010,03,19,01,20,2.70
2010,03,19,01,21,2.70
2010,03,19,01,22,2.70
2010,03,19,01,23,2.70
2010,03,19,01,24,2.70
2010,03,19,01,25,2.70
2010,03,19,01,26,2.70
2010,03,19,01,27,2.70
2010,03,19,01,28,2.70
2010,03,19,01,29,2.70
2010,03,19,01,30,2.70
2010,03,19,01,31,2.70
2010,03,19,01,32,2.70
2010,03,19,01,33,2.70
2010,03,19,01,34,2.60
2010,03,19,01,35,2.60
2010,03,19,01,36,2.60
2010,03,19,01,37,2.60
2010,03,19,01,38,2.50
2010,03,19,01,39,2.50
2010,03,19,01,40,2.50
2010,03,19,01,41,2.50
2010,03,19,01,42,2.50
2010,03,19,01,43,2.50
2010,03,19,01,44,2.40
2010,03,19,01,45,2.40
2010,03,19,01,46,2.40
2010,03,19,01,47,2.40
2010,03,19,01,48,2.40
2010,03,19,01,49,2.40
2010,03,19,01,50,2.40
2010,03,19,01,51,2.40
2010,03,19,01,52,2.40
2010,03,19,01,53,2.30
2010,03,19,01,54,2.30
2010,03,19,01,55,2.30
2010,03,19,01,56,2.30
2010,03,19,01,57,2.30
2010,03,19,01,58,2.30
2010,03,19,01,59,2.20
2010,03,19,02,00,2.20
2010,03,19,02,01,2.20
2010,03,19,02,02,2.20
2010,03,19,02,03,2.20
2010,03,19,02,04,2.20
2010,03,19,02,05,2.20
2010,03,19,02,06,2.20
2010,03,19,02,07,2.20
2010,03,19,02,08,2.20
2010,03,19,02,09,2.20
2010,03,19,02,10,2.30
2010,03,19,02,11,2.30
2010,03,19,02,12,2.30
2010,03,19,02,13,2.30
2010,03,19,02,14,2.30
2010,03,19,02,15,2.30
2010,03,19,02,16,2.30
2010,03,19,02,17,2.30
2010,03,19,02,18,2.30
2010,03,19,02,19,2.30
2010,03,19,02,20,2.30
2010,03,19,02,21,2.30
2010,03,19,02,22,2.30
2010,03,19,02,23,2.30
2010,03,19,02,24,2.30
2010,03,19,02,25,2.30
2010,03,19,02,26,2.30
2010,03,19,02,27,2.30
2010,03,19,02,28,2.30
2010,03,19,02,29,2.30
2010,03,19,02,30,2.30
2010,03,19,02,31,2.30
2010,03,19,02,32,2.30
2010,03,19,02,33,2.20
2010,03,19,02,34,2.20
2010,03,19,02,35,2.20
2010,03,19,02,36,2.20
2010,03,19,02,37,2.20
2010,03,19,02,38,2.20
2010,03,19,02,39,2.10
2010,03,19,02,40,2.10
2010,03,19,02,41,2.10
2010,03,19,02,42,2.10
2010,03,19,02,43,2.00
2010,03,19,02,44,2.00
2010,03,19,02,45,2.00
2010,03,19,02,46,2.00
2010,03,19,02,47,2.00
2010,03,19,02,48,2.00
2010,03,19,02,49,2.00
2010,03,19,02,50,2.00
2010,03,19,02,51,2.00
2010,03,19,02,52,1.90
2010,03,19,02,53,1.90
2010,03,19,02,54,1.90
2010,03,19,02,55,1.80
2010,03,19,02,56,1.80
2010,03,19,02,57,1.80
2010,03,19,02,58,1.80
2010,03,19,02,59,1.80
2010,03,19,03,00,1.80
2010,03,19,03,01,1.80
2010,03,19,03,02,1.80
2010,03,19,03,03,1.70
2010,03,19,03,04,1.70
2010,03,19,03,05,1.70
2010,03,19,03,06,1.70
2010,03,19,03,07,1.70
2010,03,19,03,08,1.70
2010,03,19,03,09,1.70
2010,03,19,03,10,1.70
2010,03,19,03,11,1.70
2010,03,19,03,12,1.70
2010,03,19,03,13,1.60
2010,03,19,03,14,1.60
2010,03,19,03,15,1.70
2010,03,19,03,16,1.70
2010,03,19,03,17,1.70
2010,03,19,03,18,1.80
2010,03,19,03,19,1.80
2010,03,19,03,20,1.90
2010,03,19,03,21,2.00
2010,03,19,03,22,2.10
2010,03,19,03,23,2.20
2010,03,19,03,24,2.40
2010,03,19,03,25,2.70
2010,03,19,03,26,2.90
2010,03,19,03,27,3.10
2010,03,19,03,28,3.40
2010,03,19,03,29,3.60
2010,03,19,03,30,3.90
2010,03,19,03,31,4.00
2010,03,19,03,32,4.20
2010,03,19,03,33,4.40
2010,03,19,03,34,4.50
2010,03,19,03,35,4.60
2010,03,19,03,36,4.70
2010,03,19,03,37,4.80
2010,03,19,03,38,4.90
2010,03,19,03,39,5.00
2010,03,19,03,40,5.10
2010,03,19,03,41,5.10
2010,03,19,03,42,5.20
2010,03,19,03,43,5.20
2010,03,19,03,44,5.30
2010,03,19,03,45,5.30
2010,03,19,03,46,5.30
2010,03,19,03,47,5.30
2010,03,19,03,48,5.40
2010,03,19,03,49,5.50
2010,03,19,03,50,5.50
2010,03,19,03,51,5.50
2010,03,19,03,52,5.50
2010,03,19,03,53,5.60
2010,03,19,03,54,5.60
2010,03,19,03,55,5.60
2010,03,19,03,56,5.60
2010,03,19,03,57,5.70
2010,03,19,03,58,5.70
2010,03,19,03,59,5.70
2010,03,19,04,00,5.70
2010,03,19,04,01,5.70
2010,03,19,04,02,5.70
2010,03,19,04,03,5.70
2010,03,19,04,04,5.70
2010,03,19,04,05,5.70
2010,03,19,04,06,5.60
2010,03,19,04,07,5.50
2010,03,19,04,08,5.50
2010,03,19,04,09,5.40
2010,03,19,04,10,5.40
2010,03,19,04,11,5.30
2010,03,19,04,12,5.30
2010,03,19,04,13,5.30
2010,03,19,04,14,5.20
2010,03,19,04,15,5.20
2010,03,19,04,16,5.10
2010,03,19,04,17,5.10
2010,03,19,04,18,5.10
2010,03,19,04,19,5.00
2010,03,19,04,20,4.90
2010,03,19,04,21,4.80
2010,03,19,04,22,4.70
2010,03,19,04,23,4.60
2010,03,19,04,24,4.60
2010,03,19,04,25,4.60
2010,03,19,04,26,4.50
2010,03,19,04,27,4.50
2010,03,19,04,28,4.40
2010,03,19,04,29,4.40
2010,03,19,04,30,4.40
2010,03,19,04,31,4.40
2010,03,19,04,32,4.30
2010,03,19,04,33,4.30
2010,03,19,04,34,4.20
2010,03,19,04,35,4.20
2010,03,19,04,36,4.20
2010,03,19,04,37,4.10
2010,03,19,04,38,4.10
2010,03,19,04,39,4.10
2010,03,19,04,40,4.10
2010,03,19,04,41,4.10
2010,03,19,04,42,4.10
2010,03,19,04,43,4.00
2010,03,19,04,44,4.00
2010,03,19,04,45,3.90
2010,03,19,04,46,3.90
2010,03,19,04,47,3.80
2010,03,19,04,48,3.80
2010,03,19,04,49,3.70
2010,03,19,04,50,3.60
2010,03,19,04,51,3.60
2010,03,19,04,52,3.50
2010,03,19,04,53,3.50
2010,03,19,04,54,3.40
2010,03,19,04,55,3.40
2010,03,19,04,56,3.30
2010,03,19,04,57,3.30
2010,03,19,04,58,3.30
2010,03,19,04,59,3.30
2010,03,19,05,00,3.20
2010,03,19,05,01,3.10
2010,03,19,05,02,3.10
2010,03,19,05,03,3.10
2010,03,19,05,04,3.10
2010,03,19,05,05,3.20
2010,03,19,05,06,3.20
2010,03,19,05,07,3.20
2010,03,19,05,08,3.10
2010,03,19,05,09,3.10
2010,03,19,05,10,3.10
2010,03,19,05,11,3.10
2010,03,19,05,12,3.00
2010,03,19,05,13,2.90
2010,03,19,05,14,2.90
2010,03,19,05,15,2.90
2010,03,19,05,16,2.90
2010,03,19,05,17,2.80
2010,03,19,05,18,2.90
2010,03,19,05,19,2.90
2010,03,19,05,20,2.90
2010,03,19,05,21,2.80
2010,03,19,05,22,2.80
2010,03,19,05,23,2.80
2010,03,19,05,24,2.80
2010,03,19,05,25,2.80
2010,03,19,05,26,2.70
2010,03,19,05,27,2.70
2010,03,19,05,28,2.70
2010,03,19,05,29,2.70
2010,03,19,05,30,2.70
2010,03,19,05,31,2.60
2010,03,19,05,32,2.60
2010,03,19,05,33,2.60
2010,03,19,05,34,2.60
2010,03,19,05,35,2.50
2010,03,19,05,36,2.50
2010,03,19,05,37,2.40
2010,03,19,05,38,2.40
2010,03,19,05,39,2.40
2010,03,19,05,40,2.40
2010,03,19,05,41,2.40
2010,03,19,05,42,2.40
2010,03,19,05,43,2.30
2010,03,19,05,44,2.30
2010,03,19,05,45,2.30
2010,03,19,05,46,2.20
2010,03,19,05,47,2.20
2010,03,19,05,48,2.20
2010,03,19,05,49,2.20
2010,03,19,05,50,2.20
2010,03,19,05,51,2.20
2010,03,19,05,52,2.10
2010,03,19,05,53,2.10
2010,03,19,05,54,2.00
2010,03,19,05,55,2.00
2010,03,19,05,56,2.00
2010,03,19,05,57,2.00
2010,03,19,05,58,2.00
2010,03,19,05,59,2.00
2010,03,19,06,00,1.90
2010,03,19,06,01,1.90
2010,03,19,06,02,1.80
2010,03,19,06,03,1.80
2010,03,19,06,04,1.80
2010,03,19,06,05,1.80
2010,03,19,06,06,1.80
2010,03,19,06,07,1.80
2010,03,19,06,08,1.70
2010,03,19,06,09,1.70
2010,03,19,06,10,1.70
2010,03,19,06,11,1.60
2010,03,19,06,12,1.60
2010,03,19,06,13,1.60
2010,03,19,06,14,1.50
2010,03,19,06,15,1.50
2010,03,19,06,16,1.40
2010,03,19,06,17,1.40
2010,03,19,06,18,1.40
2010,03,19,06,19,1.30
2010,03,19,06,20,1.30
2010,03,19,06,21,1.30
2010,03,19,06,22,1.30
2010,03,19,06,23,1.30
2010,03,19,06,24,1.20
2010,03,19,06,25,1.20
2010,03,19,06,26,1.20
2010,03,19,06,27,1.20
2010,03,19,06,28,1.10
2010,03,19,06,29,1.10
2010,03,19,06,30,1.00
2010,03,19,06,31,1.00
2010,03,19,06,32,1.00
2010,03,19,06,33,1.00
2010,03,19,06,34,1.00
2010,03,19,06,35,1.00
2010,03,19,06,36,1.00
2010,03,19,06,37,1.00
2010,03,19,06,38,0.90
2010,03,19,06,39,0.90
2010,03,19,06,40,0.90
2010,03,19,06,41,0.90
2010,03,19,06,42,0.90
2010,03,19,06,43,1.00
2010,03,19,06,44,1.00
2010,03,19,06,45,1.10
2010,03,19,06,46,1.10
2010,03,19,06,47,1.10
2010,03,19,06,48,1.10
2010,03,19,06,49,1.10
2010,03,19,06,50,1.00
2010,03,19,06,51,1.00
2010,03,19,06,52,1.00
2010,03,19,06,53,1.00
2010,03,19,06,54,1.00
2010,03,19,06,55,1.00
2010,03,19,06,56,1.00
2010,03,19,06,57,1.00
2010,03,19,06,58,1.00
2010,03,19,06,59,1.00
2010,03,19,07,00,1.00
2010,03,19,07,01,0.90
2010,03,19,07,02,0.90
2010,03,19,07,03,0.90
2010,03,19,07,04,0.90
2010,03,19,07,05,0.90
2010,03,19,07,06,0.90
2010,03,19,07,07,0.90
2010,03,19,07,08,0.90
2010,03,19,07,09,1.00
2010,03,19,07,10,1.00
2010,03,19,07,11,1.00
2010,03,19,07,12,1.10
2010,03,19,07,13,1.10
2010,03,19,07,14,1.10
2010,03,19,07,15,1.20
2010,03,19,07,16,1.20
2010,03,19,07,17,1.30
2010,03,19,07,18,1.30
2010,03,19,07,19,1.40
2010,03,19,07,20,1.50
2010,03,19,07,21,1.50
2010,03,19,07,22,1.60
2010,03,19,07,23,1.60
2010,03,19,07,24,1.60
2010,03,19,07,25,1.60
2010,03,19,07,26,1.60
2010,03,19,07,27,1.70
2010,03,19,07,28,1.70
2010,03,19,07,29,1.70
2010,03,19,07,30,1.70
2010,03,19,07,31,1.70
2010,03,19,07,32,1.70
2010,03,19,07,33,1.70
2010,03,19,07,34,1.70
2010,03,19,07,35,1.70
2010,03,19,07,36,1.70
2010,03,19,07,37,1.70
2010,03,19,07,38,1.80
2010,03,19,07,39,1.80
2010,03,19,07,40,1.80
2010,03,19,07,41,1.80
2010,03,19,07,42,1.80
2010,03,19,07,43,1.80
2010,03,19,07,44,1.80
2010,03,19,07,45,1.80
2010,03,19,07,46,1.80
2010,03,19,07,47,1.80
2010,03,19,07,48,1.80
2010,03,19,07,49,1.80
2010,03,19,07,50,1.80
2010,03,19,07,51,1.80
2010,03,19,07,52,1.90
2010,03,19,07,53,1.90
2010,03,19,07,54,1.90
2010,03,19,07,55,2.00
2010,03,19,07,56,2.00
2010,03,19,07,57,2.10
2010,03,19,07,58,2.20
2010,03,19,07,59,2.20
2010,03,19,08,00,2.20
2010,03,19,08,01,2.20
2010,03,19,08,02,2.20
2010,03,19,08,03,2.20
2010,03,19,08,04,2.20
2010,03,19,08,05,2.20
2010,03,19,08,06,2.30
2010,03,19,08,07,2.30
2010,03,19,08,08,2.30
2010,03,19,08,09,2.30
2010,03,19,08,10,2.30
2010,03,19,08,11,2.30
2010,03,19,08,12,2.30
2010,03,19,08,13,2.30
2010,03,19,08,14,2.20
2010,03,19,08,15,2.20
2010,03,19,08,16,2.20
2010,03,19,08,17,2.20
2010,03,19,08,18,2.20
2010,03,19,08,19,2.20
2010,03,19,08,20,2.20
2010,03,19,08,21,2.20
2010,03,19,08,22,2.20
2010,03,19,08,23,2.20
2010,03,19,08,24,2.20
2010,03,19,08,25,2.30
2010,03,19,08,26,2.30
2010,03,19,08,27,2.40
2010,03,19,08,28,2.50
2010,03,19,08,29,2.50
2010,03,19,08,30,2.70
2010,03,19,08,31,2.70
2010,03,19,08,32,2.80
2010,03,19,08,33,3.00
2010,03,19,08,34,3.10
2010,03,19,08,35,3.20
2010,03,19,08,36,3.30
2010,03,19,08,37,3.40
2010,03,19,08,38,3.50
2010,03,19,08,39,3.50
2010,03,19,08,40,3.60
2010,03,19,08,41,3.60
2010,03,19,08,42,3.70
2010,03,19,08,43,3.70
2010,03,19,08,44,3.80
2010,03,19,08,45,3.80
2010,03,19,08,46,3.90
2010,03,19,08,47,4.00
2010,03,19,08,48,4.10
2010,03,19,08,49,4.20
2010,03,19,08,50,4.40
2010,03,19,08,51,4.50
2010,03,19,08,52,4.60
2010,03,19,08,53,4.80
2010,03,19,08,54,4.90
2010,03,19,08,55,5.10
2010,03,19,08,56,5.20
2010,03,19,08,57,5.30
2010,03,19,08,58,5.50
2010,03,19,08,59,5.60
2010,03,19,09,00,5.80
2010,03,19,09,01,5.90
2010,03,19,09,02,6.00
2010,03,19,09,03,6.10
2010,03,19,09,04,6.20
2010,03,19,09,05,6.30
2010,03,19,09,06,6.40
2010,03,19,09,07,6.40
2010,03,19,09,08,6.50
2010,03,19,09,09,6.60
2010,03,19,09,10,6.60
2010,03,19,09,11,6.70
2010,03,19,09,12,6.70
2010,03,19,09,13,6.80
2010,03,19,09,14,6.80
2010,03,19,09,15,6.90
2010,03,19,09,16,7.00
2010,03,19,09,17,7.00
2010,03,19,09,18,7.10
2010,03,19,09,19,7.20
2010,03,19,09,20,7.30
2010,03,19,09,21,7.30
2010,03,19,09,22,7.40
2010,03,19,09,23,7.40
2010,03,19,09,24,7.50
2010,03,19,09,25,7.60
2010,03,19,09,26,7.60
2010,03,19,09,27,7.70
2010,03,19,09,28,7.70
2010,03,19,09,29,7.80
2010,03,19,09,30,7.80
2010,03,19,09,31,7.90
2010,03,19,09,32,7.90
2010,03,19,09,33,8.00
2010,03,19,09,34,8.00
2010,03,19,09,35,8.10
2010,03,19,09,36,8.10
2010,03,19,09,37,8.10
2010,03,19,09,38,8.20
2010,03,19,09,39,8.20
2010,03,19,09,40,8.20
2010,03,19,09,41,8.30
2010,03,19,09,42,8.30
2010,03,19,09,43,8.30
2010,03,19,09,44,8.30
2010,03,19,09,45,8.30
2010,03,19,09,46,8.20
2010,03,19,09,47,8.20
2010,03,19,09,48,8.20
2010,03,19,09,49,8.20
2010,03,19,09,50,8.20
2010,03,19,09,51,8.20
2010,03,19,09,52,8.20
2010,03,19,09,53,8.20
2010,03,19,09,54,8.20
2010,03,19,09,55,8.20
2010,03,19,09,56,8.20
2010,03,19,09,57,8.30
2010,03,19,09,58,8.30
2010,03,19,09,59,8.30
2010,03,19,10,00,8.30
2010,03,19,10,01,8.30
2010,03,19,10,02,8.40
2010,03,19,10,03,8.40
2010,03,19,10,04,8.40
2010,03,19,10,05,8.50
2010,03,19,10,06,8.50
2010,03,19,10,07,8.60
2010,03,19,10,08,8.60
2010,03,19,10,09,8.60
2010,03,19,10,10,8.70
2010,03,19,10,11,8.70
2010,03,19,10,12,8.70
2010,03,19,10,13,8.70
2010,03,19,10,14,8.70
2010,03,19,10,15,8.70
2010,03,19,10,16,8.80
2010,03,19,10,17,8.80
2010,03,19,10,18,8.90
2010,03,19,10,19,9.00
2010,03,19,10,20,9.00
2010,03,19,10,21,9.00
2010,03,19,10,22,9.00
2010,03,19,10,23,9.10
2010,03,19,10,24,9.10
2010,03,19,10,25,9.10
2010,03,19,10,26,9.10
2010,03,19,10,27,9.10
2010,03,19,10,28,9.10
2010,03,19,10,29,9.10
2010,03,19,10,30,9.20
2010,03,19,10,31,9.20
2010,03,19,10,32,9.20
2010,03,19,10,33,9.20
2010,03,19,10,34,9.20
2010,03,19,10,35,9.20
2010,03,19,10,36,9.20
2010,03,19,10,37,9.30
2010,03,19,10,38,9.20
2010,03,19,10,39,9.20
2010,03,19,10,40,9.20
2010,03,19,10,41,9.20
2010,03,19,10,42,9.20
2010,03,19,10,43,9.20
2010,03,19,10,44,9.20
2010,03,19,10,45,9.20
2010,03,19,10,46,9.20
2010,03,19,10,47,9.20
2010,03,19,10,48,9.20
2010,03,19,10,49,9.20
2010,03,19,10,50,9.20
2010,03,19,10,51,9.20
2010,03,19,10,52,9.20
2010,03,19,10,53,9.30
2010,03,19,10,54,9.30
2010,03,19,10,55,9.40
2010,03,19,10,56,9.40
2010,03,19,10,57,9.40
2010,03,19,10,58,9.40
2010,03,19,10,59,9.40
2010,03,19,11,00,9.40
2010,03,19,11,01,9.50
2010,03,19,11,02,9.50
2010,03,19,11,03,9.60
2010,03,19,11,04,9.70
2010,03,19,11,05,9.70
2010,03,19,11,06,9.80
2010,03,19,11,07,9.80
2010,03,19,11,08,9.80
2010,03,19,11,09,9.80
2010,03,19,11,10,9.90
2010,03,19,11,11,9.80
2010,03,19,11,12,9.80
2010,03,19,11,13,9.80
2010,03,19,11,14,9.80
2010,03,19,11,15,9.80
2010,03,19,11,16,9.90
2010,03,19,11,17,10.00
2010,03,19,11,18,10.10
2010,03,19,11,19,10.20
2010,03,19,11,20,10.30
2010,03,19,11,21,10.40
2010,03,19,11,22,10.40
2010,03,19,11,23,10.60
2010,03,19,11,24,10.60
2010,03,19,11,25,10.60
2010,03,19,11,26,10.60
2010,03,19,11,27,10.60
2010,03,19,11,28,10.60
2010,03,19,11,29,10.70
2010,03,19,11,30,10.80
2010,03,19,11,31,10.90
2010,03,19,11,32,10.90
2010,03,19,11,33,10.90
2010,03,19,11,34,10.90
2010,03,19,11,35,10.90
2010,03,19,11,36,10.80
2010,03,19,11,37,10.70
2010,03,19,11,38,10.60
2010,03,19,11,39,10.60
2010,03,19,11,40,10.60
2010,03,19,11,41,10.70
2010,03,19,11,42,10.70
2010,03,19,11,43,10.80
2010,03,19,11,44,10.80
2010,03,19,11,45,10.90
2010,03,19,11,46,10.90
2010,03,19,11,47,10.90
2010,03,19,11,48,11.00
2010,03,19,11,49,11.10
2010,03,19,11,50,11.10
2010,03,19,11,51,11.10
2010,03,19,11,52,11.10
2010,03,19,11,53,11.20
2010,03,19,11,54,11.20
2010,03,19,11,55,11.20
2010,03,19,11,56,11.20
2010,03,19,11,57,11.10
2010,03,19,11,58,11.00
2010,03,19,11,59,10.90
2010,03,19,12,00,10.90
2010,03,19,12,01,10.90
2010,03,19,12,02,10.90
2010,03,19,12,03,10.90
2010,03,19,12,04,11.00
2010,03,19,12,05,11.10
2010,03,19,12,06,11.10
2010,03,19,12,07,11.10
2010,03,19,12,08,11.10
2010,03,19,12,09,11.00
2010,03,19,12,10,10.90
2010,03,19,12,11,10.80
2010,03,19,12,12,10.80
2010,03,19,12,13,10.70
2010,03,19,12,14,10.70
2010,03,19,12,15,10.70
2010,03,19,12,16,10.90
2010,03,19,12,17,11.00
2010,03,19,12,18,11.10
2010,03,19,12,19,11.20
2010,03,19,12,20,11.30
2010,03,19,12,21,11.40
2010,03,19,12,22,11.50
2010,03,19,12,23,11.60
2010,03,19,12,24,11.60
2010,03,19,12,25,11.60
2010,03,19,12,26,11.60
2010,03,19,12,27,11.50
2010,03,19,12,28,11.40
2010,03,19,12,29,11.40
2010,03,19,12,30,11.40
2010,03,19,12,31,11.50
2010,03,19,12,32,11.60
2010,03,19,12,33,11.60
2010,03,19,12,34,11.60
2010,03,19,12,35,11.70
2010,03,19,12,36,11.80
2010,03,19,12,37,11.80
2010,03,19,12,38,11.80
2010,03,19,12,39,11.80
2010,03,19,12,40,11.80
2010,03,19,12,41,11.90
2010,03,19,12,42,11.90
2010,03,19,12,43,11.90
2010,03,19,12,44,11.90
2010,03,19,12,45,11.90
2010,03,19,12,46,11.90
2010,03,19,12,47,11.80
2010,03,19,12,48,11.80
2010,03,19,12,49,11.80
2010,03,19,12,50,11.90
2010,03,19,12,51,11.90
2010,03,19,12,52,11.90
2010,03,19,12,53,11.90
2010,03,19,12,54,11.90
2010,03,19,12,55,11.80
2010,03,19,12,56,11.80
2010,03,19,12,57,11.80
2010,03,19,12,58,11.80
2010,03,19,12,59,11.80
2010,03,19,13,00,11.80
2010,03,19,13,01,11.80
2010,03,19,13,02,11.70
2010,03,19,13,03,11.70
2010,03,19,13,04,11.60
2010,03,19,13,05,11.50
2010,03,19,13,06,11.40
2010,03,19,13,07,11.40
2010,03,19,13,08,11.40
2010,03,19,13,09,11.40
2010,03,19,13,10,11.40
2010,03,19,13,11,11.50
2010,03,19,13,12,11.60
2010,03,19,13,13,11.60
2010,03,19,13,14,11.70
2010,03,19,13,15,11.70
2010,03,19,13,16,11.80
2010,03,19,13,17,11.80
2010,03,19,13,18,11.80
2010,03,19,13,19,11.80
2010,03,19,13,20,11.80
2010,03,19,13,21,11.80
2010,03,19,13,22,11.80
2010,03,19,13,23,11.80
2010,03,19,13,24,11.80
2010,03,19,13,25,11.70
2010,03,19,13,26,11.60
2010,03,19,13,27,11.60
2010,03,19,13,28,11.60
2010,03,19,13,29,11.70
2010,03,19,13,30,11.70
2010,03,19,13,31,11.70
2010,03,19,13,32,11.70
2010,03,19,13,33,11.70
2010,03,19,13,34,11.60
2010,03,19,13,35,11.60
2010,03,19,13,36,11.60
2010,03,19,13,37,11.60
2010,03,19,13,38,11.60
2010,03,19,13,39,11.60
2010,03,19,13,40,11.60
2010,03,19,13,41,11.50
2010,03,19,13,42,11.40
2010,03,19,13,43,11.40
2010,03,19,13,44,11.60
2010,03,19,13,45,11.60
2010,03,19,13,46,11.60
2010,03,19,13,47,11.60
2010,03,19,13,48,11.70
2010,03,19,13,49,11.70
2010,03,19,13,50,11.70
2010,03,19,13,51,11.70
2010,03,19,13,52,11.80
2010,03,19,13,53,11.80
2010,03,19,13,54,11.80
2010,03,19,13,55,11.90
2010,03,19,13,56,11.90
2010,03,19,13,57,11.80
2010,03,19,13,58,11.80
2010,03,19,13,59,11.70
2010,03,19,14,00,11.70
2010,03,19,14,01,11.60
2010,03,19,14,02,11.70
2010,03,19,14,03,11.70
2010,03,19,14,04,11.70
2010,03,19,14,05,11.70
2010,03,19,14,06,11.70
2010,03,19,14,07,11.80
2010,03,19,14,08,11.80
2010,03,19,14,09,11.90
2010,03,19,14,10,11.90
2010,03,19,14,11,11.90
2010,03,19,14,12,12.00
2010,03,19,14,13,12.10
2010,03,19,14,14,12.10
2010,03,19,14,15,12.10
2010,03,19,14,16,12.20
2010,03,19,14,17,12.20
2010,03,19,14,18,12.20
2010,03,19,14,19,12.20
2010,03,19,14,20,12.30
2010,03,19,14,21,12.30
2010,03,19,14,22,12.30
2010,03,19,14,23,12.40
2010,03,19,14,24,12.40
2010,03,19,14,25,12.50
2010,03,19,14,26,12.50
2010,03,19,14,27,12.60
2010,03,19,14,28,12.60
2010,03,19,14,29,12.60
2010,03,19,14,30,12.70
2010,03,19,14,31,12.80
2010,03,19,14,32,12.80
2010,03,19,14,33,12.90
2010,03,19,14,34,12.90
2010,03,19,14,35,12.90
2010,03,19,14,36,12.90
2010,03,19,14,37,12.90
2010,03,19,14,38,12.90
2010,03,19,14,39,12.90
2010,03,19,14,40,13.00
2010,03,19,14,41,13.10
2010,03,19,14,42,13.20
2010,03,19,14,43,13.20
2010,03,19,14,44,13.10
2010,03,19,14,45,13.10
2010,03,19,14,46,13.10
2010,03,19,14,47,13.10
2010,03,19,14,48,13.10
2010,03,19,14,49,13.20
2010,03,19,14,50,13.20
2010,03,19,14,51,13.30
2010,03,19,14,52,13.30
2010,03,19,14,53,13.40
2010,03,19,14,54,13.30
2010,03,19,14,55,13.20
2010,03,19,14,56,13.10
2010,03,19,14,57,13.00
2010,03,19,14,58,13.00
2010,03,19,14,59,12.80
2010,03,19,15,00,12.80
2010,03,19,15,01,12.90
2010,03,19,15,02,12.90
2010,03,19,15,03,12.90
2010,03,19,15,04,12.80
2010,03,19,15,05,12.80
2010,03,19,15,06,12.80
2010,03,19,15,07,12.90
2010,03,19,15,08,12.90
2010,03,19,15,09,12.80
2010,03,19,15,10,12.80
2010,03,19,15,11,12.90
2010,03,19,15,12,12.90
2010,03,19,15,13,12.90
2010,03,19,15,14,12.90
2010,03,19,15,15,13.00
2010,03,19,15,16,13.00
2010,03,19,15,17,13.00
2010,03,19,15,18,13.00
2010,03,19,15,19,13.00
2010,03,19,15,20,13.10
2010,03,19,15,21,13.10
2010,03,19,15,22,13.00
2010,03,19,15,23,13.00
2010,03,19,15,24,13.10
2010,03,19,15,25,13.10
2010,03,19,15,26,13.00
2010,03,19,15,27,12.90
2010,03,19,15,28,12.90
2010,03,19,15,29,12.90
2010,03,19,15,30,12.90
2010,03,19,15,31,13.00
2010,03,19,15,32,13.10
2010,03,19,15,33,13.00
2010,03,19,15,34,13.00
2010,03,19,15,35,12.90
2010,03,19,15,36,12.90
2010,03,19,15,37,13.00
2010,03,19,15,38,13.00
2010,03,19,15,39,13.00
2010,03,19,15,40,13.00
2010,03,19,15,41,13.00
2010,03,19,15,42,13.10
2010,03,19,15,43,13.20
2010,03,19,15,44,13.20
2010,03,19,15,45,13.30
2010,03,19,15,46,13.30
2010,03,19,15,47,13.30
2010,03,19,15,48,13.30
2010,03,19,15,49,13.40
2010,03,19,15,50,13.30
2010,03,19,15,51,13.30
2010,03,19,15,52,13.30
2010,03,19,15,53,13.20
2010,03,19,15,54,13.10
2010,03,19,15,55,13.00
2010,03,19,15,56,12.90
2010,03,19,15,57,12.90
2010,03,19,15,58,12.90
2010,03,19,15,59,12.80
2010,03,19,16,00,12.90
2010,03,19,16,01,12.90
2010,03,19,16,02,12.90
2010,03,19,16,03,12.90
2010,03,19,16,04,12.80
2010,03,19,16,05,12.80
2010,03,19,16,06,12.80
2010,03,19,16,07,12.80
2010,03,19,16,08,12.90
2010,03,19,16,09,13.00
2010,03,19,16,10,13.10
2010,03,19,16,11,13.20
2010,03,19,16,12,13.20
2010,03,19,16,13,13.10
2010,03,19,16,14,13.10
2010,03,19,16,15,13.10
2010,03,19,16,16,13.00
2010,03,19,16,17,12.90
2010,03,19,16,18,12.90
2010,03,19,16,19,12.90
2010,03,19,16,20,12.90
2010,03,19,16,21,12.90
2010,03,19,16,22,12.90
2010,03,19,16,23,12.80
2010,03,19,16,24,12.80
2010,03,19,16,25,12.90
2010,03,19,16,26,13.00
2010,03,19,16,27,13.10
2010,03,19,16,28,13.20
2010,03,19,16,29,13.20
2010,03,19,16,30,13.20
2010,03,19,16,31,13.10
2010,03,19,16,32,13.10
2010,03,19,16,33,13.10
2010,03,19,16,34,13.00
2010,03,19,16,35,13.00
2010,03,19,16,36,13.00
2010,03,19,16,37,13.00
2010,03,19,16,38,13.00
2010,03,19,16,39,13.00
2010,03,19,16,40,12.90
2010,03,19,16,41,12.90
2010,03,19,16,42,12.80
2010,03,19,16,43,12.80
2010,03,19,16,44,12.80
2010,03,19,16,45,12.80
2010,03,19,16,46,12.80
2010,03,19,16,47,12.80
2010,03,19,16,48,12.80
2010,03,19,16,49,12.80
2010,03,19,16,50,12.80
2010,03,19,16,51,12.70
2010,03,19,16,52,12.70
2010,03,19,16,53,12.70
2010,03,19,16,54,12.70
2010,03,19,16,55,12.70
2010,03,19,16,56,12.70
2010,03,19,16,57,12.70
2010,03,19,16,58,12.70
2010,03,19,16,59,12.70
2010,03,19,17,00,12.70
2010,03,19,17,01,12.60
2010,03,19,17,02,12.60
2010,03,19,17,03,12.60
2010,03,19,17,04,12.60
2010,03,19,17,05,12.60
2010,03,19,17,06,12.60
2010,03,19,17,07,12.60
2010,03,19,17,08,12.60
2010,03,19,17,09,12.60
2010,03,19,17,10,12.60
2010,03,19,17,11,12.70
2010,03,19,17,12,12.80
2010,03,19,17,13,12.80
2010,03,19,17,14,12.90
2010,03,19,17,15,12.90
2010,03,19,17,16,12.90
2010,03,19,17,17,13.00
2010,03,19,17,18,13.00
2010,03,19,17,19,12.90
2010,03,19,17,20,12.90
2010,03,19,17,21,12.90
2010,03,19,17,22,12.90
2010,03,19,17,23,12.90
2010,03,19,17,24,12.90
2010,03,19,17,25,12.90
2010,03,19,17,26,13.00
2010,03,19,17,27,13.00
2010,03,19,17,28,13.10
2010,03,19,17,29,13.00
2010,03,19,17,30,13.00
2010,03,19,17,31,13.00
2010,03,19,17,32,13.10
2010,03,19,17,33,13.10
2010,03,19,17,34,13.00
2010,03,19,17,35,13.00
2010,03,19,17,36,13.00
2010,03,19,17,37,13.00
2010,03,19,17,38,13.00
2010,03,19,17,39,13.00
2010,03,19,17,40,13.00
2010,03,19,17,41,13.10
2010,03,19,17,42,13.10
2010,03,19,17,43,13.10
2010,03,19,17,44,13.00
2010,03,19,17,45,13.00
2010,03,19,17,46,13.00
2010,03,19,17,47,13.00
2010,03,19,17,48,12.90